EHI
0 0 0 0 0 0 0 0 0 0 0 0 0 0 0 0 0 0 0 0 0 0 0 0 0 0 0 0 0 0 0 0 0 0 0 0 0 0 0 0 0 0 0
0 0 0 0 0 0 0 0 0 0 0 0 0 0 0 0 0 0 0 0 0 0 0 0 0 0 0 0 0 0 0 0 0 0 0 0 0 0 0 0 0 0 0
0 0 0 0 0 0 0 0 0 0 0 0 0 0 0 0 0 0 0 0 0 0 0 0 0 0 0 0 0 0 0 0 0 0 0 0 0 0 0 0 0 0 0
0 0 0 0 0 0 0 0 0 0 0 0 0 0 0 0 0 0 0 0 0 0 0 0 0 0 0 0 0 0 0 0 0 0 0 0 0 0 0 0 0 0 0
0 0 0 0 0 0 0 0 0 0 0 0 0 0 0 0 0 0 0 0 0 0 0 0 0 0 0 0 0 0 0 0 0 0 0 0 0 0 0 0 0 0 0
0 0 0 0 0 0 0 0 0 0 0 0 0 0 0 0 0 0 0 0 0 0 0 0 0 0 0 0 0 0 0 0 0 0 0 0 0 0 0 0 0 0 0
0 0 0 0 0 0 0 0 0 0 0 0 0 0 0 0 0 0 0 0 0 0 0 0 0 0 0 0 0 0 0 0 0 0 0 0 0 0 0 0 0 0 0
0 0 0 0 0 0 0 0 0 0 0 0 0 0 0 0 0 0 0 0 0 0 0 0 0 0 0 0 0 0 0 0 0 0 0 0 0 0 0 0 0 0 0
0 0 0 0 0 0 0 0 0 0 0 0 0 0 0 0 0 0 0 0 0 0 0 0 0 0 0 0 0 0 0 0 0 0 0 0 0 0 0 0 0 0 0
0 0 0 0 0 0 0 0 0 0 0 0 0 0 0 0 0 0 0 0 0 0 0 0 0 0 0 0 0 0 0 0 0 0 0 0 0 0 0 0 0 0 0
0 0 0 0 0 0 0 0 0 0 0 0 0 0 0 0 0 0 0 0 0 0 0 0 0 0 0 0 0 0 0 0 0 0 0 0 0 0 0 0 0 0 0
0 0 0 0 0 0 0 0 0 0 0 0 0 0 0 0 0 0 0 0 0 0 0 0 0 0 0 0 0 0 0 0 0 0 0 0 0 0 0 0 0 0 0
0 0 0 0 0 0 0 0 0 0 0 0 0 0 0 0 0 0 0 0 0 0 0 0 0 0 0 0 0 0 0 0 0 0 0 0 0 0 0 0 0 0 0
0 0 0 0 0 0 0 0 0 0 0 0 0 0 0 0 0 0 0 0 0 0 0 0 0 0 0 0 0 0 0 0 0 0 0 0 0 0 0 0 0 0 0
0 0 0 0 0 0 0 0 0 0 0 0 0 0 0 0 0 0 0 0 0 0 0 0 0 0 0 0 0 0 0 0 0 0 0 0 0 0 0 0 0 0 0
0 0 0 0 0 0 0 0 0 0 0 0 0 0 0 0 0 0 0 0 0 0 0 0 0 0 0 0 0 0 0 0 0 0 0 0 0 0 0 0 0 0 0
0 0 0 0 0 0 0 0 0 0 0 0 0 0 0 0 0 0 0 0 0 0 0 0 0 0 0 0 0 0 0 0 0 0 0 0 0 0 0 0 0 0 0
0 0 0 0 0 0 0 0 0 0 0 0 0 0 0 0 0 0 0 0 0 0 0 0 0 0 0 0 0 0 0 0 0 0 0 0 0 0 0 0 0 0 0
0 0 0 0 0 0 0 0 0 0 0 0 0 0 0 0 0 0 0 0 0 0 0 0 0 0 0 0 0 0 0 0 0 0 0 0 0 0 0 0 0 0 0
0 0 0 0 0 0 0 0 0 0 0 0 0 0 0 0 0 0 0 0 0 0 0 0 0 0 0 0 0 0 0 0 0 0 0 0 0 0 0 0 0 0 0
0 0 0 0 0 0 0 0 0 0 0 0 0 0 0 0 0 0 0 0 0 0 0 0 0 0 0 0 0 0 0 0 0 0 0 0 0 0 0 0 0 0 0
0 0 0 0 0 0 0 0 0 0 0 0 0 0 0 0 0 0 0 0 0 0 0 0 0 0 0 0 0 0 0 0 0 0 0 0 0 0 0 0 0 0 0
0 0 0 0 0 0 0 0 0 0 0 0 0 0 0 0 0 0 0 0 0 0 0 0 0 0 0 0 0 0 0 0 0 0 0 0 0 0 0 0 0 0 0
0 0 0 0 0 0 0 0 0 0 0 0 0 0 0 0 0 0 0 0 0 0 0 0 0 0 0 0 0 0 0 0 0 0 0 0 0 0 0 0 0 0 0
0 0 0 0 0 0 0 0 0 0 0 0 0 0 0 0 0 0 0 0 0 0 0 0 0 0 0 0 0 0 0 0 0 0 0 0 0 0 0 0 0 0 0
0 0 0 0 0 0 0 0 0 0 0 0 0 0 0 0 0 0 0 0 0 0 0 0 0 0 0 0 0 0 0 0 0 0 0 0 0 0 0 0 0 0 0
Wind_Speed
4 4 3 3 4 4 3 2 3 4 4 4 3 4 4 4 4 6 5 11 11 10 10 10 11 11 11 11 11 11 11 12 12 12 13 13 13 14 14 14 14 13 13
4 4 4 4 4 3 3 3 4 3 3 3 2 2 3 3 3 6 6 7 10 9 9 9 10 11 11 12 12 12 12 12 13 13 14 14 14 14 15 15 15 15 15
6 5 5 4 4 4 4 4 4 3 3 2 1 1 2 2 3 2 6 5 5 7 6 7 8 9 11 12 13 13 13 13 13 14 14 15 15 15 16 16 16 16 16
8 6 5 4 5 4 4 4 3 2 3 3 3 2 1 1 1 1 4 4 4 3 3 3 5 8 10 12 13 13 13 13 13 14 15 15 16 16 17 17 17 17 17
9 7 6 5 6 5 4 4 4 3 3 3 3 2 1 1 0 1 1 4 4 3 1 1 3 6 9 12 13 13 13 13 14 14 15 16 17 17 18 18 19 19 19
10 8 6 7 6 5 4 4 4 4 3 2 3 2 1 1 0 2 1 2 3 3 2 1 1 4 9 13 14 14 13 14 14 15 16 17 18 18 19 20 20 20 21
10 9 7 7 6 5 5 5 4 4 3 3 2 3 1 1 1 2 2 1 1 3 2 1 0 1 3 10 13 14 14 14 15 17 17 18 19 20 21 22 22 22 23
9 9 9 7 7 6 6 6 4 3 2 3 2 2 3 2 2 1 2 2 1 0 0 1 1 2 2 2 7 13 13 14 17 18 19 20 21 22 23 24 24 24 24
9 9 9 8 7 6 5 6 4 4 3 2 3 2 2 1 4 3 2 1 1 1 1 2 2 3 3 3 4 7 12 15 17 19 21 22 24 25 25 25 25 25 25
8 9 9 9 8 6 7 5 5 3 3 2 1 1 2 2 0 4 4 3 2 2 3 3 3 3 4 3 5 10 13 16 18 21 23 25 26 26 26 26 26 26 26
8 9 9 8 8 7 7 6 5 4 3 3 2 1 0 0 2 2 4 4 4 3 4 4 4 4 4 4 3 7 15 17 20 23 25 27 27 27 27 27 27 27 27
7 8 10 8 8 7 7 6 5 5 4 3 2 1 1 0 1 1 3 4 4 4 5 5 6 5 4 4 6 12 15 19 22 25 27 27 27 27 28 28 28 28 28
8 9 9 8 7 7 6 5 5 5 4 3 1 1 1 0 1 1 3 4 5 4 5 4 4 3 4 2 3 13 16 21 24 26 28 28 28 28 28 28 29 28 28
8 9 10 10 9 8 7 5 4 4 3 2 1 1 0 1 1 1 2 3 5 4 3 5 5 4 3 4 8 18 10 22 25 27 28 29 29 29 29 29 29 29 29
11 11 11 11 9 7 7 5 4 4 3 2 1 1 1 1 1 1 1 1 3 5 5 5 4 4 6 5 11 8 7 19 27 28 29 29 29 29 29 30 30 30 30
12 13 11 10 9 7 6 4 4 4 2 0 1 1 2 1 1 1 2 2 3 6 8 4 5 6 7 9 16 11 9 26 26 28 29 29 29 30 30 30 30 31 30
13 13 12 10 8 7 6 4 3 4 1 1 1 2 2 2 2 2 2 3 4 5 10 8 5 5 7 9 10 9 10 10 11 25 28 29 29 29 30 30 30 31 31
12 12 11 9 8 6 5 4 3 2 1 1 2 2 3 2 3 2 3 4 4 5 8 12 7 6 8 9 10 10 12 12 9 21 27 28 29 29 30 31 31 31 31
12 11 10 9 7 6 5 4 3 1 1 2 3 3 3 3 4 3 4 4 4 6 5 9 10 7 7 9 11 11 12 9 12 16 22 24 27 30 31 31 31 31 30
12 11 10 8 7 6 4 3 3 2 3 3 3 3 3 4 4 4 4 5 5 6 6 8 10 9 9 9 8 9 10 6 9 12 17 20 24 28 29 31 31 31 30
12 11 10 7 6 4 4 5 4 4 4 5 5 4 4 6 9 8 7 5 5 5 6 8 10 11 10 8 8 8 12 10 9 9 10 10 11 11 14 21 26 28 29
10 9 8 7 5 4 6 4 3 3 4 5 6 5 5 6 10 14 16 16 14 10 9 9 11 12 12 10 8 9 11 13 14 5 8 12 10 12 11 10 22 29 30
9 8 6 5 5 6 5 3 5 4 5 6 6 5 5 6 10 5 10 15 14 19 21 15 13 13 12 10 10 11 12 14 15 10 10 15 11 13 11 14 27 30 31
7 6 5 4 4 5 4 2 6 5 5 6 6 5 5 5 7 10 7 5 7 10 15 12 11 11 11 10 11 14 14 13 12 9 8 14 13 13 13 10 22 29 30
6 5 4 3 2 2 4 2 6 3 4 6 6 6 7 6 14 18 9 8 10 9 16 21 22 22 26 27 21 11 9 11 14 12 6 8 10 12 13 12 14 22 23
5 4 3 1 1 1 1 3 6 2 4 4 5 6 12 14 17 19 10 9 12 11 10 11 14 17 14 15 21 11 8 11 13 11 4 4 6 9 11 6 6 8 13
Wind_Direction
165 158 142 138 129 126 130 104 85 80 67 51 39 34 19 20 62 98 85 82 79 74 67 58 48 36 25 16 8 1 354 349 345 342 339 337 335 332 329 325 323 321 320
165 141 127 118 109 104 100 98 86 80 70 59 31 30 22 15 45 107 118 94 91 82 68 54 39 26 15 6 358 351 345 341 338 335 331 328 326 324 321 318 315 313 311
145 130 122 118 116 110 96 81 77 69 64 26 3 63 55 31 15 101 130 127 113 100 83 55 30 14 4 356 350 345 340 337 335 331 327 324 322 319 315 312 310 307 306
140 130 125 125 120 106 96 91 83 76 63 31 1 4 14 81 329 70 113 125 125 118 107 63 20 1 352 347 342 339 337 337 334 330 327 323 320 317 313 309 306 303 302
137 130 127 126 118 109 104 98 66 65 60 21 320 299 23 32 252 95 101 123 117 113 120 256 346 345 340 337 335 333 334 334 331 328 325 322 319 316 313 309 305 301 298
134 127 129 127 119 112 110 107 105 77 58 353 312 305 177 119 173 161 166 136 155 177 197 274 9 346 342 333 330 329 328 328 328 326 324 321 318 315 312 308 304 300 297
131 132 133 128 126 125 131 127 119 101 50 355 357 340 296 210 206 174 168 158 214 202 189 221 86 29 334 327 326 320 322 324 325 323 321 318 317 315 311 306 303 299 296
130 135 134 133 127 122 114 110 109 110 77 34 44 10 359 339 311 231 173 199 232 82 253 332 0 328 303 300 302 312 317 319 319 318 317 316 315 311 307 303 300 297 294
126 131 131 129 125 123 123 119 120 124 134 79 60 81 85 318 322 319 275 224 212 268 278 284 284 276 281 287 286 298 304 311 312 313 313 313 311 307 303 300 298 297 295
129 132 130 130 125 122 123 121 113 112 119 129 107 75 113 122 59 316 319 322 333 314 297 292 290 279 274 271 274 291 300 304 308 310 311 311 307 304 302 301 300 298 297
134 134 130 127 126 127 123 119 117 106 100 113 116 108 88 133 200 216 281 302 320 315 319 306 288 274 266 259 256 276 294 303 306 307 308 306 304 303 302 302 302 301 299
137 133 128 124 122 122 119 121 119 110 99 94 85 89 115 181 284 261 277 298 297 291 301 286 278 268 258 257 269 292 302 305 304 303 303 302 302 303 304 304 302 300 297
147 143 134 127 123 122 121 124 121 122 117 116 118 77 42 315 275 271 278 289 294 297 285 278 291 302 299 312 307 310 306 305 304 303 301 301 302 303 303 301 298 297 295
145 139 132 128 128 128 130 127 122 128 125 142 175 146 193 287 287 265 263 297 304 289 282 296 311 302 328 327 309 315 309 307 304 302 301 302 302 301 300 298 297 296 294
141 136 131 130 132 131 132 135 134 137 141 166 172 140 237 259 263 263 267 252 264 287 290 275 288 329 329 312 308 308 297 303 303 301 302 302 300 299 298 297 296 295 293
139 134 130 130 128 124 124 121 118 116 115 166 146 170 272 271 286 284 276 270 257 272 284 279 296 298 307 311 307 306 298 302 302 301 299 299 299 298 297 297 296 294 293
136 133 131 129 127 127 127 127 132 133 151 274 265 243 262 275 278 283 289 283 273 271 283 288 283 295 300 297 297 290 291 286 288 296 298 298 298 298 298 297 296 294 292
130 127 126 123 122 119 118 121 124 130 199 267 288 291 287 291 291 285 278 273 276 276 285 296 299 296 293 292 292 291 297 295 290 297 299 300 301 301 299 297 295 294 293
122 117 114 112 110 106 97 86 73 41 338 292 277 269 271 280 282 278 281 284 284 290 287 296 300 296 292 292 294 291 289 289 294 299 302 301 300 299 297 298 299 298 297
114 110 105 104 105 102 94 72 41 359 325 308 294 277 265 260 262 267 278 273 278 282 285 290 294 295 291 288 288 296 298 286 291 298 295 294 295 298 298 298 297 296 295
106 103 103 101 99 105 86 59 22 352 338 321 308 293 282 288 289 289 286 276 284 283 287 291 293 294 295 297 296 296 300 301 290 283 283 287 290 287 289 291 293 292 291
103 103 106 108 108 104 92 55 360 339 326 314 304 299 301 299 298 304 308 306 303 302 301 294 294 295 297 294 294 296 300 301 298 274 287 294 288 286 285 281 288 293 295
105 106 109 117 121 122 110 40 342 334 308 294 290 291 296 297 308 296 294 299 302 302 301 297 294 293 293 291 291 292 290 289 290 294 295 293 290 287 285 289 295 296 296
111 113 113 106 104 140 130 37 343 339 308 296 293 290 289 287 290 298 286 293 287 294 294 293 284 284 289 288 282 287 289 289 286 280 273 286 292 290 291 287 292 291 292
107 108 109 105 87 124 138 24 350 331 307 306 312 319 318 302 305 312 316 304 297 292 300 299 299 299 300 301 302 301 297 297 295 293 277 273 285 296 292 285 283 288 292
106 107 103 96 89 127 173 339 337 317 310 310 310 311 314 313 313 317 314 303 302 299 294 296 298 297 295 294 300 297 294 295 296 296 272 273 290 307 299 269 265 284 291